Atlantic - Newfoundland: Past 24 Hour Conditions

 

Charlottetown Airport

08:00 PM ADT 20 September 2014
This table is a summary of hourly weather conditions for the past 24 hours.
Date / Time
(ADT)
Wind(knots) Conditions Visibility(km) Pressure(kPa) Air tempC) Relative humidity(%) Dew pointC)
20 September 2014
20:00 SSW 11 Light Rainshower 24 102.0 13 77 9
19:00 SW 11 gust 16 Mostly Cloudy 24 102.0 14 71 9
18:00 SW 12 gust 21 Cloudy 24 102.1 14 62 7
17:00 SSW 14 gust 23 Mostly Cloudy 24 102.1 14 58 6
16:00 SW 17 gust 24 Mostly Cloudy 24 102.2 14 51 4
15:00 SW 15 gust 28 Mostly Cloudy 24 102.2 14 49 3
14:00 SW 19 gust 28 Mostly Cloudy 24 102.3 14 43 2
13:00 SSW 18 gust 26 Mostly Cloudy 24 102.3 13 48 2
12:00 SSW 17 gust 26 Mostly Cloudy 24 102.4 13 49 2
11:00 SSW 16 gust 32 Mostly Cloudy 24 102.5 11 48 1
10:00 SSW 15 gust 25 Mostly Cloudy 24 102.6 11 50 1
9:00 SSW 14 gust 22 Mostly Cloudy 24 102.6 11 63 4
8:00 SSW 10 gust 15 Mostly Cloudy 24 102.7 10 72 5
7:00 SSW 7 Mostly Cloudy 24 102.7 7 59 0
6:00 SW 5 Mostly Cloudy 24 102.8 7 60 0
5:00 SW 4 Partly Cloudy 24 102.8 6 68 1
4:00 WSW 3 Partly Cloudy 24 102.8 6 64 0
3:00 WSW 5 Clear 24 102.8 5 61 -2
2:00 WSW 6 Clear 24 102.8 5 58 -3
1:00 WSW 4 Clear 24 102.8 5 63 -2
0:00 SW 5 Clear 24 102.8 5 59 -2
19 September 2014
23:00 WSW 5 Clear 24 102.8 5 55 -3
22:00 W 6 Clear 24 102.8 5 57 -3
21:00 WSW 6 Clear 24 102.7 6 59 -2
20:00 W 4 Mainly Clear 24 102.6 6 55 -2
 
Map of Atlantic - Newfoundland marine weather areas Southwestern Grand Banks - 44138 Banquereau - 44139 Tail of the Bank - 44140 Nickerson Bank - 44251 Northeast Burgeo Bank - 44255 Blanc-Sablon Airport Cap Whittle Chevery Natashquan Airport Heath Point Miscou Island Grand Étang Ingonish Beach North Mountain St.Paul Island J.A. Douglas McCurdy Sydney Airport Charlottetown Airport East Point North Cape Argentia Bonavista Burgeo Cape Race Corner Brook Daniel's Harbour Englee Ferolle Point La Scie Port aux Basques Rocky Harbour Sagona Island St. Anthony Airport St. John's Int'l Airport St. Lawrence Stephenville Airport Twillingate Winterland Wreckhouse Cartwright Airport Mary's Harbour Grates Cove Pool's Island Marticot Island Long Pond Îles de la Madeleine Airport
Legend: buoyBuoy land stationLand Station